Location: Unspecified
(32.2314°N, 110.9180°W)
Time: 08:04:55
(UTC-06:00)

Tiangong - Visible Passes

Search period start: 29 September 2022 00:00
Search period end: 09 October 2022 00:00
Orbit: 381 x 385 km, 41.5° (Epoch: 29 September)

Date Brightness Start Highest point End Pass type
(mag) Time Alt. Az. Time Alt. Az. Time Alt. Az.
29 Sep 1.3 04:57:25 12° ENE 04:57:25 12° ENE 04:57:47 10° E visible
29 Sep -1.7 06:29:38 16° WNW 06:31:54 46° SSW 06:34:56 10° SE visible
30 Sep -0.8 05:33:01 37° ESE 05:33:01 37° ESE 05:35:03 10° ESE visible
01 Oct -0.6 06:08:43 22° SSW 06:08:43 22° SSW 06:11:00 10° SSE visible
05 Oct -1.4 20:12:55 10° SSW 20:15:48 34° SE 20:15:52 34° SE visible
06 Oct -0.4 20:49:12 10° WSW 20:51:11 33° W 20:51:11 33° W visible
07 Oct -2.2 19:48:55 10° SW 19:52:03 73° SSE 19:54:07 19° ENE visible
08 Oct -0.8 20:25:45 10° W 20:28:38 32° NNW 20:29:07 31° N visible
